,,,PA_Meas_PMT16A,,PR_Meas_QMR101_102,,RH_Meas_QMH101,,SR_Meas_QMS101,,TA_Meas_QMH101,,GenWind,,GenWind,
date,time,status,PA,status,PR,status,RH,status,SR,status,TA,status,DirAvg,status,SpdAvg,
2008-03-03, 00:00:04,VALID,1004.88,VALID,0,VALID,80.7136,VALID,0,VALID,26.685,VALID,71,VALID,0,
2008-03-03, 00:01:04,VALID,1004.86,VALID,0,VALID,81.156,VALID,0,VALID,26.7065,VALID,45,VALID,0.390234,
2008-03-03, 00:02:04,VALID,1004.84,VALID,0,VALID,81.5527,VALID,0,VALID,26.6675,VALID,45,VALID,0,
2008-03-03, 00:03:04,VALID,1004.8,VALID,0,VALID,81.3544,VALID,0,VALID,26.6091,VALID,45,VALID,0,
2008-03-03, 00:04:04,VALID,1004.8,VALID,0,VALID,81.835,VALID,0,VALID,26.5506,VALID,2,VALID,0.637109,
2008-03-03, 00:05:04,VALID,1004.79,VALID,0,VALID,82.0944,VALID,0,VALID,26.5701,VALID,357,VALID,0.898828,
2008-03-03, 00:06:04,VALID,1004.72,VALID,0,VALID,81.4841,VALID,0,VALID,26.648,VALID,25,VALID,0.920313,
2008-03-03, 00:07:04,VALID,1004.68,VALID,0,VALID,80.7136,VALID,0,VALID,26.687,VALID,10,VALID,1.31602,
2008-03-03, 00:08:04,VALID,1004.64,VALID,0,VALID,80.0727,VALID,0,VALID,26.7998,VALID,22,VALID,1.65781,
2008-03-03, 00:09:04,VALID,1004.61,VALID,0,VALID,80.2558,VALID,0.100563,VALID,26.8993,VALID,20,VALID,0.721094,
2008-03-03, 00:10:04,VALID,1004.61,VALID,0,VALID,79.409,VALID,0.100563,VALID,26.8778,VALID,359,VALID,1.14688,
2008-03-03, 00:11:04,VALID,1004.58,VALID,0,VALID,79.7905,VALID,0.100563,VALID,26.9383,VALID,355,VALID,0.887109,
2008-03-03, 00:12:04,VALID,1004.58,VALID,0,VALID,79.3938,VALID,0.100563,VALID,26.9557,VALID,356,VALID,0.91875,
2008-03-03, 00:13:04,VALID,1004.57,VALID,0,VALID,79.7676,VALID,0.100563,VALID,26.9967,VALID,350,VALID,0.851563,
2008-03-03, 00:14:04,VALID,1004.53,VALID,0,VALID,79.8057,VALID,0.100563,VALID,26.9578,VALID,357,VALID,1.16289,
2008-03-03, 00:15:04,VALID,1004.53,VALID,0,VALID,79.6837,VALID,0,VALID,26.9188,VALID,340,VALID,0.930078,
2008-03-03, 00:16:04,VALID,1004.49,VALID,0,VALID,80.3321,VALID,0.100563,VALID,26.8993,VALID,353,VALID,1.29688,
2008-03-03, 00:17:04,VALID,1004.47,VALID,0,VALID,81.2934,VALID,0.100563,VALID,26.8019,VALID,10,VALID,0.890234,
2008-03-03, 00:18:04,VALID,1004.45,VALID,0,VALID,81.2399,VALID,0.100563,VALID,26.685,VALID,350,VALID,0.682422,
2008-03-03, 00:19:04,VALID,1004.44,VALID,0,VALID,81.4383,VALID,0.100563,VALID,26.5876,VALID,355,VALID,1.28086,
2008-03-03, 00:20:04,VALID,1004.4,VALID,0,VALID,81.5985,VALID,0.100563,VALID,26.5681,VALID,336,VALID,0.891016,
2008-03-03, 00:21:04,VALID,1004.36,VALID,0,VALID,81.5375,VALID,0.100563,VALID,26.5855,VALID,23,VALID,1.74648,
2008-03-03, 00:22:04,VALID,1004.36,VALID,0,VALID,81.5604,VALID,0.100563,VALID,26.646,VALID,15,VALID,0.837109,
2008-03-03, 00:23:04,VALID,1004.36,VALID,0,VALID,81.3696,VALID,0.100563,VALID,26.646,VALID,31,VALID,1.51563,
2008-03-03, 00:24:04,VALID,1004.33,VALID,0,VALID,81.1026,VALID,0.100563,VALID,26.6655,VALID,13,VALID,1.93516,
2008-03-03, 00:25:04,VALID,1004.32,VALID,0,VALID,81.2399,VALID,0.100563,VALID,26.7629,VALID,12,VALID,1.62109,
2008-03-03, 00:26:04,VALID,1004.34,VALID,0,VALID,81.1713,VALID,0,VALID,26.7824,VALID,35,VALID,1.23047,
2008-03-03, 00:27:04,VALID,1004.34,VALID,0,VALID,81.156,VALID,0,VALID,26.8019,VALID,1,VALID,0.828906,
2008-03-03, 00:28:04,VALID,1004.33,VALID,0,VALID,81.2552,VALID,0.100563,VALID,26.7824,VALID,26,VALID,1.95977,
2008-03-03, 00:29:04,VALID,1004.32,VALID,0,VALID,81.2705,VALID,0,VALID,26.8214,VALID,35,VALID,1.88516,
2008-03-03, 00:30:04,VALID,1004.32,VALID,0,VALID,81.0874,VALID,0.100563,VALID,26.8603,VALID,358,VALID,1.40547,
2008-03-03, 00:31:04,VALID,1004.31,VALID,0,VALID,81.0797,VALID,0,VALID,26.8798,VALID,36,VALID,1.38086,
2008-03-03, 00:32:04,VALID,1004.28,VALID,0,VALID,80.9806,VALID,0.100563,VALID,26.8798,VALID,27,VALID,2.28125,
2008-03-03, 00:33:04,VALID,1004.32,VALID,0,VALID,80.8432,VALID,0.100563,VALID,26.9383,VALID,16,VALID,1.66641,
2008-03-03, 00:34:04,VALID,1004.32,VALID,0,VALID,80.8356,VALID,0,VALID,26.9188,VALID,350,VALID,0.763672,
2008-03-03, 00:35:04,VALID,1004.36,VALID,0,VALID,80.9348,VALID,0.100563,VALID,26.8993,VALID,20,VALID,1.58164,
2008-03-03, 00:36:04,VALID,1004.36,VALID,0,VALID,81.3239,VALID,0.100563,VALID,26.8798,VALID,63,VALID,0.583203,
2008-03-03, 00:37:04,VALID,1004.35,VALID,0,VALID,81.1026,VALID,0.100563,VALID,26.8993,VALID,343,VALID,1.29141,
2008-03-03, 00:38:04,VALID,1004.42,VALID,0,VALID,81.1484,VALID,0.100563,VALID,26.8993,VALID,5,VALID,1.46719,
2008-03-03, 00:39:04,VALID,1004.43,VALID,0,VALID,81.1484,VALID,0,VALID,26.8798,VALID,13,VALID,1.30078,
2008-03-03, 00:40:04,VALID,1004.43,VALID,0,VALID,81.301,VALID,0,VALID,26.8993,VALID,34,VALID,1.43359,
2008-03-03, 00:41:04,VALID,1004.41,VALID,0,VALID,81.0721,VALID,0,VALID,26.9403,VALID,32,VALID,2.7875,
2008-03-03, 00:42:04,VALID,1004.42,VALID,0,VALID,81.0874,VALID,0,VALID,26.9578,VALID,41,VALID,0.5375,
2008-03-03, 00:43:04,VALID,1004.42,VALID,0,VALID,81.3544,VALID,0,VALID,26.9383,VALID,14,VALID,2.59414,
2008-03-03, 00:44:04,VALID,1004.41,VALID,0,VALID,81.301,VALID,0.100563,VALID,26.8973,VALID,58,VALID,0.688672,
2008-03-03, 00:45:04,VALID,1004.39,VALID,0,VALID,81.4993,VALID,0.100563,VALID,26.8993,VALID,35,VALID,0.689844,
2008-03-03, 00:46:04,VALID,1004.36,VALID,0,VALID,81.5985,VALID,0,VALID,26.8408,VALID,27,VALID,1.17813,
2008-03-03, 00:47:04,VALID,1004.37,VALID,0,VALID,82.0181,VALID,0.100563,VALID,26.8429,VALID,23,VALID,0.794531,
2008-03-03, 00:48:04,VALID,1004.35,VALID,0,VALID,81.9799,VALID,0.100563,VALID,26.8019,VALID,26,VALID,1.23438,
2008-03-03, 00:49:04,VALID,1004.33,VALID,0,VALID,81.9723,VALID,0,VALID,26.8019,VALID,23,VALID,0.776172,
2008-03-03, 00:50:04,VALID,1004.34,VALID,0,VALID,82.0333,VALID,0.100563,VALID,26.7824,VALID,49,VALID,0.422266,
2008-03-03, 00:51:04,VALID,1004.34,VALID,0,VALID,82.247,VALID,0,VALID,26.7434,VALID,42,VALID,0.344922,
2008-03-03, 00:52:04,VALID,1004.32,VALID,0,VALID,82.7962,VALID,0,VALID,26.7045,VALID,42,VALID,0.439844,
2008-03-03, 00:53:04,VALID,1004.29,VALID,0,VALID,83.0175,VALID,0.100563,VALID,26.648,VALID,359,VALID,0.432031,
2008-03-03, 00:54:04,VALID,1004.29,VALID,0,VALID,82.9564,VALID,0,VALID,26.6265,VALID,30,VALID,0.973437,
2008-03-03, 00:55:04,VALID,1004.27,VALID,0,VALID,82.7886,VALID,0.100563,VALID,26.7065,VALID,42,VALID,0.688672,
2008-03-03, 00:56:04,VALID,1004.23,VALID,0,VALID,82.7123,VALID,0,VALID,26.685,VALID,24,VALID,1.50312,
2008-03-03, 00:57:04,VALID,1004.21,VALID,0,VALID,82.3766,VALID,0,VALID,26.7239,VALID,52,VALID,1.16523,
2008-03-03, 00:58:04,VALID,1004.17,VALID,0,VALID,82.6208,VALID,0,VALID,26.7629,VALID,20,VALID,0.638672,
2008-03-03, 00:59:04,VALID,1004.14,VALID,0,VALID,82.3232,VALID,0.100563,VALID,26.7434,VALID,36,VALID,1.09766,
2008-03-03, 01:00:04,VALID,1004.13,VALID,0,VALID,82.3538,VALID,0,VALID,26.7239,VALID,34,VALID,0.839844,
2008-03-03, 01:01:04,VALID,1004.13,VALID,0,VALID,82.5597,VALID,0.100563,VALID,26.7045,VALID,22,VALID,0.888672,
2008-03-03, 01:02:04,VALID,1004.1,VALID,0,VALID,82.781,VALID,0,VALID,26.6655,VALID,6,VALID,0.819141,
2008-03-03, 01:03:04,VALID,1004.1,VALID,0,VALID,82.7352,VALID,0.100563,VALID,26.685,VALID,27,VALID,1.22656,
2008-03-03, 01:04:04,VALID,1004.11,VALID,0,VALID,82.7276,VALID,0,VALID,26.7239,VALID,46,VALID,0.661719,
2008-03-03, 01:05:04,VALID,1004.11,VALID,0,VALID,82.8725,VALID,0.100563,VALID,26.7045,VALID,360,VALID,1.64453,
2008-03-03, 01:06:04,VALID,1004.09,VALID,0,VALID,82.6894,VALID,0,VALID,26.7239,VALID,29,VALID,0.737891,
2008-03-03, 01:07:04,VALID,1004.12,VALID,0,VALID,82.6894,VALID,0,VALID,26.7455,VALID,23,VALID,0.607813,
2008-03-03, 01:08:04,VALID,1004.1,VALID,0,VALID,82.7199,VALID,0.100563,VALID,26.7219,VALID,3,VALID,1.09883,
2008-03-03, 01:09:04,VALID,1004.1,VALID,0,VALID,82.3766,VALID,0,VALID,26.8214,VALID,10,VALID,0.536328,
2008-03-03, 01:10:04,VALID,1004.12,VALID,0,VALID,82.163,VALID,0.100563,VALID,26.8603,VALID,22,VALID,1.08008,
2008-03-03, 01:11:04,VALID,1004.1,VALID,0,VALID,82.2546,VALID,0,VALID,26.8408,VALID,35,VALID,0.659766,
2008-03-03, 01:12:04,VALID,1004.07,VALID,0,VALID,82.308,VALID,0.100563,VALID,26.8408,VALID,356,VALID,1.07813,
2008-03-03, 01:13:04,VALID,1004.06,VALID,0,VALID,82.4835,VALID,0.100563,VALID,26.8408,VALID,24,VALID,0.667578,
2008-03-03, 01:14:04,VALID,1004.04,VALID,0,VALID,82.3995,VALID,0,VALID,26.8214,VALID,31,VALID,0.409766,
2008-03-03, 01:15:04,VALID,1004.04,VALID,0,VALID,82.636,VALID,0,VALID,26.7629,VALID,31,VALID,0.13125,
2008-03-03, 01:16:04,VALID,1004.01,VALID,0,VALID,82.7047,VALID,0,VALID,26.7239,VALID,12,VALID,0.516797,
2008-03-03, 01:17:04,VALID,1003.98,VALID,0,VALID,82.8268,VALID,0,VALID,26.7045,VALID,11,VALID,1.34297,
2008-03-03, 01:18:04,VALID,1003.99,VALID,0,VALID,82.9641,VALID,0.100563,VALID,26.7239,VALID,11,VALID,1.08125,
2008-03-03, 01:19:04,VALID,1003.98,VALID,0,VALID,82.8039,VALID,0,VALID,26.7065,VALID,20,VALID,1.06016,
2008-03-03, 01:20:04,VALID,1003.94,VALID,0,VALID,83.0556,VALID,0,VALID,26.7045,VALID,18,VALID,0.379297,
2008-03-03, 01:21:04,VALID,1003.91,VALID,0,VALID,83.0556,VALID,0.100563,VALID,26.685,VALID,43,VALID,0.257031,
2008-03-03, 01:22:04,VALID,1003.88,VALID,0,VALID,83.4371,VALID,0.100563,VALID,26.6265,VALID,34,VALID,0.536719,
2008-03-03, 01:23:04,VALID,1003.85,VALID,0,VALID,84.4136,VALID,0,VALID,26.4901,VALID,26,VALID,1.06914,
2008-03-03, 01:24:04,VALID,1003.8,VALID,0,VALID,84.2305,VALID,0,VALID,26.4727,VALID,34,VALID,0.878125,
2008-03-03, 01:25:04,VALID,1003.78,VALID,0,VALID,84.5051,VALID,0,VALID,26.4122,VALID,36,VALID,0.369922,
2008-03-03, 01:26:04,VALID,1003.76,VALID,0,VALID,84.7645,VALID,0,VALID,26.3343,VALID,47,VALID,0.656641,
2008-03-03, 01:27:04,VALID,1003.75,VALID,0,VALID,85.0162,VALID,0,VALID,26.2973,VALID,10,VALID,0.840234,
2008-03-03, 01:28:04,VALID,1003.74,VALID,0,VALID,85.2833,VALID,0.100563,VALID,26.2564,VALID,360,VALID,1.32344,
2008-03-03, 01:29:04,VALID,1003.7,VALID,0,VALID,85.3977,VALID,0,VALID,26.2564,VALID,3,VALID,0.35,
2008-03-03, 01:30:04,VALID,1003.68,VALID,0,VALID,85.3138,VALID,0.100563,VALID,26.2759,VALID,28,VALID,1.07344,
2008-03-03, 01:31:04,VALID,1003.68,VALID,0,VALID,85.2222,VALID,0,VALID,26.3343,VALID,8,VALID,0.717188,
2008-03-03, 01:32:04,VALID,1003.66,VALID,0,VALID,85.1078,VALID,0,VALID,26.3733,VALID,38,VALID,1.03125,
2008-03-03, 01:33:04,VALID,1003.63,VALID,0,VALID,84.9628,VALID,0,VALID,26.4122,VALID,25,VALID,1.33867,
2008-03-03, 01:34:04,VALID,1003.6,VALID,0,VALID,84.6348,VALID,0.100563,VALID,26.4512,VALID,62,VALID,0.414453,
2008-03-03, 01:35:04,VALID,1003.62,VALID,0,VALID,84.5738,VALID,0,VALID,26.4707,VALID,62,VALID,0.248437,
2008-03-03, 01:36:04,VALID,1003.59,VALID,0,VALID,84.734,VALID,0,VALID,26.4512,VALID,14,VALID,0.419141,
2008-03-03, 01:37:04,VALID,1003.59,VALID,0,VALID,84.795,VALID,0,VALID,26.4122,VALID,17,VALID,0.646094,
2008-03-03, 01:38:04,VALID,1003.59,VALID,0,VALID,84.6653,VALID,0,VALID,26.4317,VALID,35,VALID,0.866797,
2008-03-03, 01:39:04,VALID,1003.58,VALID,0,VALID,84.5738,VALID,0,VALID,26.4512,VALID,9,VALID,0.898828,
2008-03-03, 01:40:04,VALID,1003.59,VALID,0,VALID,84.7187,VALID,0,VALID,26.4727,VALID,9,VALID,0.553906,
2008-03-03, 01:41:04,VALID,1003.64,VALID,0,VALID,84.7797,VALID,0,VALID,26.4122,VALID,16,VALID,0.352734,
2008-03-03, 01:42:04,VALID,1003.66,VALID,0,VALID,84.7492,VALID,0,VALID,26.4122,VALID,25,VALID,1.74922,
2008-03-03, 01:43:04,VALID,1003.7,VALID,0,VALID,84.383,VALID,0,VALID,26.4901,VALID,46,VALID,1.15156,
2008-03-03, 01:44:04,VALID,1003.71,VALID,0,VALID,83.2769,VALID,0,VALID,26.5681,VALID,32,VALID,1.27461,
2008-03-03, 01:45:04,VALID,1003.77,VALID,0,VALID,83.2235,VALID,0,VALID,26.5876,VALID,70,VALID,0.966016,
2008-03-03, 01:46:04,VALID,1003.81,VALID,0,VALID,82.3614,VALID,0,VALID,26.5486,VALID,66,VALID,0.733203,
2008-03-03, 01:47:04,VALID,1003.9,VALID,0,VALID,82.8191,VALID,0,VALID,26.5681,VALID,91,VALID,0.979297,
2008-03-03, 01:48:04,VALID,1003.96,VALID,0,VALID,82.5216,VALID,0,VALID,26.5701,VALID,60,VALID,0.816406,
2008-03-03, 01:49:04,VALID,1004.02,VALID,0,VALID,82.7886,VALID,0,VALID,26.5291,VALID,105,VALID,1.02383,
2008-03-03, 01:50:04,VALID,1004.06,VALID,0,VALID,82.9641,VALID,0,VALID,26.4901,VALID,88,VALID,0.49375,
2008-03-03, 01:51:04,VALID,1004.11,VALID,0,VALID,82.4987,VALID,0,VALID,26.4512,VALID,38,VALID,0.933203,
2008-03-03, 01:52:04,VALID,1004.15,VALID,0,VALID,82.2698,VALID,0,VALID,26.4317,VALID,88,VALID,1.00625,
2008-03-03, 01:53:04,VALID,1004.14,VALID,0,VALID,82.6131,VALID,0,VALID,26.4122,VALID,56,VALID,0.201562,
2008-03-03, 01:54:04,VALID,1004.14,VALID,0,VALID,82.4835,VALID,0,VALID,26.3927,VALID,56,VALID,0.344141,
2008-03-03, 01:55:04,VALID,1004.1,VALID,0,VALID,82.4072,VALID,0,VALID,26.3947,VALID,62,VALID,0.205859,
2008-03-03, 01:56:04,VALID,1004.07,VALID,0,VALID,82.2393,VALID,0,VALID,26.3538,VALID,11,VALID,0.593359,
2008-03-03, 01:57:04,VALID,1004.05,VALID,0,VALID,81.5604,VALID,0,VALID,26.3343,VALID,22,VALID,0.972266,
2008-03-03, 01:58:04,VALID,1004.03,VALID,0,VALID,81.6977,VALID,0,VALID,26.3538,VALID,2,VALID,0.778125,
2008-03-03, 01:59:04,VALID,1004,VALID,0,VALID,81.4078,VALID,0,VALID,26.3343,VALID,13,VALID,1.02422,
2008-03-03, 02:00:04,VALID,1003.98,VALID,0,VALID,81.2018,VALID,0,VALID,26.3363,VALID,18,VALID,0.94375,
2008-03-03, 02:01:04,VALID,1003.97,VALID,0,VALID,81.8121,VALID,0,VALID,26.3148,VALID,24,VALID,0.464844,
2008-03-03, 02:02:04,VALID,1003.94,VALID,0,VALID,81.4536,VALID,0,VALID,26.2953,VALID,348,VALID,0.840625,
2008-03-03, 02:03:04,VALID,1003.93,VALID,0,VALID,81.6519,VALID,0,VALID,26.2759,VALID,355,VALID,1.19062,
2008-03-03, 02:04:04,VALID,1003.92,VALID,0,VALID,82.2546,VALID,0,VALID,26.2564,VALID,356,VALID,0.51875,
2008-03-03, 02:05:04,VALID,1003.91,VALID,0,VALID,82.4148,VALID,0,VALID,26.2369,VALID,320,VALID,0.332812,
2008-03-03, 02:06:04,VALID,1003.88,VALID,0,VALID,82.3461,VALID,0,VALID,26.1979,VALID,29,VALID,0.774219,
2008-03-03, 02:07:04,VALID,1003.88,VALID,0,VALID,82.3385,VALID,0,VALID,26.1999,VALID,15,VALID,0.903906,
2008-03-03, 02:08:04,VALID,1003.86,VALID,0,VALID,82.3843,VALID,0,VALID,26.159,VALID,19,VALID,0.369531,
2008-03-03, 02:09:04,VALID,1003.87,VALID,0,VALID,82.4835,VALID,0,VALID,26.1804,VALID,1,VALID,0.500781,
2008-03-03, 02:10:04,VALID,1003.86,VALID,0,VALID,83.4142,VALID,0,VALID,26.1609,VALID,355,VALID,0.483984,
2008-03-03, 02:11:04,VALID,1003.88,VALID,0,VALID,83.8567,VALID,0,VALID,26.12,VALID,354,VALID,0.26875,
2008-03-03, 02:12:04,VALID,1003.87,VALID,0,VALID,84.6806,VALID,0,VALID,26.0616,VALID,354,VALID,0.483203,
2008-03-03, 02:13:04,VALID,1003.9,VALID,0,VALID,84.9857,VALID,0,VALID,25.9856,VALID,355,VALID,0.551562,
2008-03-03, 02:14:04,VALID,1003.89,VALID,0,VALID,84.8026,VALID,0,VALID,25.9272,VALID,340,VALID,0.536719,
2008-03-03, 02:15:04,VALID,1003.89,VALID,0,VALID,85.1765,VALID,0,VALID,25.8473,VALID,342,VALID,0.213672,
2008-03-03, 02:16:04,VALID,1003.91,VALID,0,VALID,85.207,VALID,0,VALID,25.8298,VALID,336,VALID,0.465234,
2008-03-03, 02:17:04,VALID,1003.9,VALID,0,VALID,85.1536,VALID,0,VALID,25.7889,VALID,302,VALID,0.426953,
2008-03-03, 02:18:04,VALID,1003.9,VALID,0,VALID,85.0773,VALID,0,VALID,25.7889,VALID,301,VALID,0.212109,
2008-03-03, 02:19:04,VALID,1003.92,VALID,0,VALID,85.535,VALID,0,VALID,25.7889,VALID,301,VALID,0,
2008-03-03, 02:20:04,VALID,1003.93,VALID,0,VALID,86.1453,VALID,0,VALID,25.7694,VALID,303,VALID,0.438672,
2008-03-03, 02:21:04,VALID,1003.93,VALID,0,VALID,86.3437,VALID,0,VALID,25.7109,VALID,310,VALID,0.477344,
2008-03-03, 02:22:04,VALID,1003.94,VALID,0,VALID,87.1828,VALID,0,VALID,25.672,VALID,322,VALID,0.283203,
2008-03-03, 02:23:04,VALID,1003.94,VALID,0,VALID,87.4804,VALID,0,VALID,25.6136,VALID,322,VALID,0.0125,
2008-03-03, 02:24:04,VALID,1003.95,VALID,0,VALID,88.0525,VALID,0,VALID,25.5357,VALID,107,VALID,0.667578,
2008-03-03, 02:25:04,VALID,1003.94,VALID,0,VALID,88.6857,VALID,0,VALID,25.4577,VALID,130,VALID,0.948047,
2008-03-03, 02:26:04,VALID,1004.04,VALID,0,VALID,89.029,VALID,0,VALID,25.4207,VALID,151,VALID,1.61484,
2008-03-03, 02:27:04,VALID,1004.04,VALID,0,VALID,88.9451,VALID,0,VALID,25.3798,VALID,165,VALID,1.51289,
2008-03-03, 02:28:04,VALID,1004.06,VALID,0,VALID,88.9833,VALID,0,VALID,25.4012,VALID,157,VALID,2.34023,
2008-03-03, 02:29:04,VALID,1004.01,VALID,0,VALID,88.4111,VALID,0,VALID,25.4383,VALID,136,VALID,1.51406,
2008-03-03, 02:30:04,VALID,1004.01,VALID,0,VALID,88.2661,VALID,0,VALID,25.4792,VALID,177,VALID,1.2082,
2008-03-03, 02:31:04,VALID,1004.02,VALID,0,VALID,88.1136,VALID,0,VALID,25.4986,VALID,172,VALID,1.23164,
2008-03-03, 02:32:04,VALID,1004.03,VALID,0,VALID,88.0296,VALID,0,VALID,25.4577,VALID,145,VALID,0.745313,
2008-03-03, 02:33:04,VALID,1004.02,VALID,0,VALID,88.5408,VALID,0,VALID,25.4772,VALID,139,VALID,0.477734,
2008-03-03, 02:34:04,VALID,1004.02,VALID,0,VALID,88.2967,VALID,0,VALID,25.4577,VALID,120,VALID,0.717969,
2008-03-03, 02:35:04,VALID,1004.03,VALID,0,VALID,88.5484,VALID,0,VALID,25.4383,VALID,116,VALID,0.510156,
2008-03-03, 02:36:04,VALID,1004.02,VALID,0,VALID,88.2204,VALID,0.100563,VALID,25.4402,VALID,128,VALID,0.958203,
2008-03-03, 02:37:04,VALID,1004.01,VALID,0,VALID,88.289,VALID,0.100563,VALID,25.4383,VALID,143,VALID,0.55,
2008-03-03, 02:38:04,VALID,1003.98,VALID,0,VALID,87.8847,VALID,0,VALID,25.4402,VALID,164,VALID,0.808984,
2008-03-03, 02:39:04,VALID,1003.98,VALID,0,VALID,88.2127,VALID,0,VALID,25.4383,VALID,161,VALID,0.78125,
2008-03-03, 02:40:04,VALID,1003.99,VALID,0,VALID,87.6635,VALID,0,VALID,25.4383,VALID,160,VALID,1.45742,
2008-03-03, 02:41:04,VALID,1003.98,VALID,0,VALID,87.6253,VALID,0,VALID,25.4577,VALID,121,VALID,1.54141,
2008-03-03, 02:42:04,VALID,1003.95,VALID,0,VALID,87.7245,VALID,0,VALID,25.4169,VALID,137,VALID,1.34883,
2008-03-03, 02:43:04,VALID,1003.98,VALID,0,VALID,87.5872,VALID,0.100563,VALID,25.4577,VALID,102,VALID,1.03125,
2008-03-03, 02:44:04,VALID,1003.94,VALID,0,VALID,87.7779,VALID,0.100563,VALID,25.4383,VALID,106,VALID,0.759375,
2008-03-03, 02:45:04,VALID,1003.95,VALID,0,VALID,87.7398,VALID,0,VALID,25.3993,VALID,116,VALID,0.432422,
2008-03-03, 02:46:04,VALID,1003.93,VALID,0,VALID,87.7474,VALID,0,VALID,25.3798,VALID,102,VALID,0.775781,
2008-03-03, 02:47:04,VALID,1003.89,VALID,0,VALID,87.7855,VALID,0.100563,VALID,25.3409,VALID,89,VALID,1.01836,
2008-03-03, 02:48:04,VALID,1003.87,VALID,0,VALID,87.816,VALID,0,VALID,25.3019,VALID,124,VALID,0.908984,
2008-03-03, 02:49:04,VALID,1003.89,VALID,0,VALID,87.9152,VALID,0,VALID,25.2825,VALID,118,VALID,0.986328,
2008-03-03, 02:50:04,VALID,1003.87,VALID,0,VALID,88.2738,VALID,0,VALID,25.263,VALID,121,VALID,0.982813,
2008-03-03, 02:51:04,VALID,1003.89,VALID,0,VALID,88.2661,VALID,0,VALID,25.224,VALID,115,VALID,0.916016,
2008-03-03, 02:52:04,VALID,1003.89,VALID,0,VALID,88.5637,VALID,0.100563,VALID,25.2046,VALID,140,VALID,1.00664,
2008-03-03, 02:53:04,VALID,1003.88,VALID,0,VALID,88.8917,VALID,0,VALID,25.1851,VALID,129,VALID,0.548437,
2008-03-03, 02:54:04,VALID,1003.87,VALID,0,VALID,88.8688,VALID,0.100563,VALID,25.1461,VALID,121,VALID,0.610156,
2008-03-03, 02:55:04,VALID,1003.87,VALID,0,VALID,88.9985,VALID,0.100563,VALID,25.1267,VALID,121,VALID,0.301953,
2008-03-03, 02:56:04,VALID,1003.87,VALID,0,VALID,89.0748,VALID,0,VALID,25.0877,VALID,98,VALID,0.555078,
2008-03-03, 02:57:04,VALID,1003.87,VALID,0,VALID,89.1892,VALID,0.100563,VALID,25.0682,VALID,100,VALID,0.699219,
2008-03-03, 02:58:04,VALID,1003.9,VALID,0,VALID,89.2121,VALID,0,VALID,25.0682,VALID,97,VALID,0.712109,
2008-03-03, 02:59:04,VALID,1003.93,VALID,0,VALID,89.3189,VALID,0.100563,VALID,25.0079,VALID,92,VALID,0.782422,
2008-03-03, 03:00:04,VALID,1003.92,VALID,0,VALID,89.5249,VALID,0.100563,VALID,24.9904,VALID,90,VALID,0.982813,
2008-03-03, 03:01:04,VALID,1003.92,VALID,0,VALID,89.7309,VALID,0.100563,VALID,24.9319,VALID,87,VALID,0.566797,
2008-03-03, 03:02:04,VALID,1003.89,VALID,0,VALID,89.8301,VALID,0,VALID,24.893,VALID,77,VALID,0.441016,
2008-03-03, 03:03:04,VALID,1003.86,VALID,0,VALID,90.0132,VALID,0,VALID,24.8132,VALID,61,VALID,0.252734,
2008-03-03, 03:04:04,VALID,1003.88,VALID,0,VALID,90.1657,VALID,0,VALID,24.7956,VALID,56,VALID,0.4,
2008-03-03, 03:05:04,VALID,1003.88,VALID,0,VALID,90.3793,VALID,0.100563,VALID,24.7567,VALID,56,VALID,0.123828,
2008-03-03, 03:06:04,VALID,1003.86,VALID,0,VALID,90.4633,VALID,0.100563,VALID,24.7177,VALID,56,VALID,0.0105469,
2008-03-03, 03:07:04,VALID,1003.86,VALID,0,VALID,90.593,VALID,0,VALID,24.6964,VALID,56,VALID,0,
2008-03-03, 03:08:04,VALID,1003.84,VALID,0,VALID,90.7837,VALID,0,VALID,24.6593,VALID,65,VALID,0.193359,
2008-03-03, 03:09:04,VALID,1003.83,VALID,0,VALID,90.9668,VALID,0.100563,VALID,24.6185,VALID,63,VALID,0.141797,
2008-03-03, 03:10:04,VALID,1003.84,VALID,0,VALID,91.1651,VALID,0.100563,VALID,24.6204,VALID,64,VALID,0.275,
2008-03-03, 03:11:04,VALID,1003.83,VALID,0,VALID,91.3482,VALID,0.100563,VALID,24.5814,VALID,118,VALID,0.625,
2008-03-03, 03:12:04,VALID,1003.87,VALID,0,VALID,91.5161,VALID,0,VALID,24.5425,VALID,140,VALID,1.00195,
2008-03-03, 03:13:04,VALID,1003.85,VALID,0,VALID,91.7373,VALID,0.100563,VALID,24.5425,VALID,117,VALID,0.874609,
2008-03-03, 03:14:04,VALID,1003.81,VALID,0,VALID,91.7907,VALID,0,VALID,24.523,VALID,113,VALID,0.848047,
2008-03-03, 03:15:04,VALID,1003.82,VALID,0,VALID,91.7831,VALID,0.100563,VALID,24.523,VALID,75,VALID,0.607031,
2008-03-03, 03:16:04,VALID,1003.77,VALID,0,VALID,91.7068,VALID,0.100563,VALID,24.4822,VALID,74,VALID,0.316016,
2008-03-03, 03:17:04,VALID,1003.74,VALID,0,VALID,91.7068,VALID,0.100563,VALID,24.5035,VALID,74,VALID,0.116797,
2008-03-03, 03:18:04,VALID,1003.75,VALID,0,VALID,91.6991,VALID,0.100563,VALID,24.4841,VALID,74,VALID,0.190625,
2008-03-03, 03:19:04,VALID,1003.75,VALID,0,VALID,91.7373,VALID,0.100563,VALID,24.4433,VALID,50,VALID,0.495313,
2008-03-03, 03:20:04,VALID,1003.76,VALID,0,VALID,91.9433,VALID,0.100563,VALID,24.4062,VALID,49,VALID,0.421094,
2008-03-03, 03:21:04,VALID,1003.78,VALID,0,VALID,92.0348,VALID,0,VALID,24.408,VALID,49,VALID,0.240234,
2008-03-03, 03:22:04,VALID,1003.75,VALID,0,VALID,92.1416,VALID,0,VALID,24.3867,VALID,49,VALID,0,
2008-03-03, 03:23:04,VALID,1003.78,VALID,0,VALID,92.1874,VALID,0,VALID,24.3478,VALID,49,VALID,0,
2008-03-03, 03:24:04,VALID,1003.76,VALID,0,VALID,92.2561,VALID,0,VALID,24.3283,VALID,50,VALID,0.264453,
2008-03-03, 03:25:04,VALID,1003.77,VALID,0,VALID,92.2637,VALID,0,VALID,24.3302,VALID,50,VALID,0.166016,
2008-03-03, 03:26:04,VALID,1003.72,VALID,0,VALID,92.4925,VALID,0,VALID,24.3107,VALID,50,VALID,0,
2008-03-03, 03:27:04,VALID,1003.74,VALID,0,VALID,92.5612,VALID,0,VALID,24.2912,VALID,50,VALID,0,
2008-03-03, 03:28:04,VALID,1003.72,VALID,0,VALID,92.546,VALID,0,VALID,24.2699,VALID,50,VALID,0,
2008-03-03, 03:29:04,VALID,1003.73,VALID,0,VALID,92.6756,VALID,0,VALID,24.2504,VALID,50,VALID,0,
2008-03-03, 03:30:04,VALID,1003.72,VALID,0,VALID,92.6833,VALID,0,VALID,24.231,VALID,50,VALID,0,
2008-03-03, 03:31:04,VALID,1003.73,VALID,0,VALID,92.935,VALID,0,VALID,24.2328,VALID,49,VALID,0.0457031,
2008-03-03, 03:32:04,VALID,1003.77,VALID,0,VALID,93.1181,VALID,0,VALID,24.2523,VALID,30,VALID,0.603125,
2008-03-03, 03:33:04,VALID,1003.77,VALID,0,VALID,93.0189,VALID,0,VALID,24.2523,VALID,29,VALID,0.507031,
2008-03-03, 03:34:04,VALID,1003.74,VALID,0,VALID,92.9732,VALID,0.100563,VALID,24.2133,VALID,24,VALID,0.242578,
2008-03-03, 03:35:04,VALID,1003.76,VALID,0,VALID,93.0876,VALID,0,VALID,24.1939,VALID,24,VALID,0.096875,
2008-03-03, 03:36:04,VALID,1003.71,VALID,0,VALID,93.2097,VALID,0,VALID,24.1726,VALID,24,VALID,0,
2008-03-03, 03:37:04,VALID,1003.7,VALID,0,VALID,93.2707,VALID,0,VALID,24.1336,VALID,24,VALID,0,
2008-03-03, 03:38:04,VALID,1003.69,VALID,0,VALID,93.3699,VALID,0,VALID,24.0947,VALID,24,VALID,0,
2008-03-03, 03:39:04,VALID,1003.66,VALID,0,VALID,93.5911,VALID,0,VALID,24.1355,VALID,24,VALID,0.458203,
2008-03-03, 03:40:04,VALID,1003.63,VALID,0,VALID,93.4614,VALID,0.100563,VALID,24.0752,VALID,24,VALID,0.573828,
2008-03-03, 03:41:04,VALID,1003.6,VALID,0,VALID,93.7437,VALID,0,VALID,24.0557,VALID,24,VALID,0.553906,
2008-03-03, 03:42:04,VALID,1003.58,VALID,0,VALID,93.8657,VALID,0,VALID,24.0752,VALID,25,VALID,0.463281,